Weather in Santa Cruz

Chile     34°38′15″S   71°21′58″W
temp.,
°C
wind,
m/s
gust,
m/s
humid.,
%
clouds,
%
prec.,
mm/h
press.,
hPa
HPBL,
m
14 april, wed
wed1423:00+16nw11590 0.0 101211
02:00+15nnw11660 0.0 101211
05:00+13wnw11750 0.0 101211
08:00+14ssw11690 0.0 101426
11:00+23ssw11372 0.0 1014601
14:00+29sw12245 0.0 10121361
17:00+28sw32240 0.0 10121393
20:00+17w22571 0.0 101417
15 april, thu
thu1523:00+15sse11640 0.0 101511
02:00+13sse22610 0.0 101513
05:00+11sse22700 0.0 101517
08:00+12sse22710 0.0 101569
11:00+21s33390 0.0 1014547
14:00+26s33240 0.0 10121063
17:00+26s33210 0.0 10121254
20:00+18sw11360 0.0 101411
16 april, fri
fri1623:00+15s11445 0.0 101511
02:00+13sse225144 0.0 101410
05:00+11sse2273100 0.0 101410
08:00+12sse117115 0.0 101538
11:00+21s32390 0.0 1015590
14:00+27sse212350 0.0 10121055
17:00+27sse112141 0.0 10111168
20:00+18sw1136100 0.0 101311
17 april, sat
sat1723:00+16nw1152100 0.0 101411
02:00+14nw1163100 0.0 101510
05:00+12nnw117211 0.0 101510
08:00+13ne11703 0.0 101729
11:00+22wnw2138100 0.0 1016564
14:00+26wnw222690 0.0 10141247
17:00+26w21265 0.0 10131024
20:00+16w22535 0.0 101514
18 april, sun
sun1823:00+14wsw11605 0.0 101610
02:00+12sse11642 0.0 101610
05:00+11sse11575 0.0 101510
08:00+12s11485 0.0 101730
11:00+21ssw22270 0.0 1015532
14:00+27wsw12215 0.0 10131180
17:00+26sw2219100 0.0 1011809
20:00+17w3241100 0.0 101327